Wind_Speed
38 38 37 38 39 40 42 43 44 45 46 47 47 47 47 45 44 43 43 43 43 44 44 45 45 46 47 48 50 51 52 54 55 56 57 58 59 60 61 63 64 65 66 67 68 69 70 70 71 71 71 72 72 73 73 73 73 73 74 74 74 74 73 73 73 72 71 71 71 72 72 72 72 72 72 73 73 73 73 73 71 70 69 69 68
37 37 37 38 39 41 42 44 45 45 46 47 47 46 45 43 42 41 42 42 43 44 44 45 46 47 48 50 51 53 54 56 57 58 59 60 61 62 63 64 65 66 68 69 70 70 71 72 72 72 72 72 71 71 71 70 70 70 70 70 69 69 69 68 68 68 68 67 66 67 68 68 67 66 66 68 69 68 68 68 67 66 65 65 64
37 37 37 39 40 42 43 44 45 46 47 47 46 44 43 41 41 41 42 42 43 44 45 46 47 48 50 51 53 54 56 58 59 60 62 63 63 64 65 66 67 68 69 70 70 71 71 71 71 71 70 70 69 68 68 67 66 65 65 64 64 64 63 62 62 62 62 62 63 63 63 61 60 60 61 63 63 62 64 65 64 64 64 64 65
37 37 38 40 41 43 44 45 46 47 47 45 44 42 41 40 41 42 42 43 44 45 47 48 49 50 51 53 54 56 58 60 61 63 64 64 65 66 66 67 68 68 69 69 69 69 69 68 68 67 67 66 65 63 62 62 61 60 59 58 58 58 57 56 56 56 57 59 60 59 57 56 56 57 57 57 58 59 61 62 62 62 62 63 64
38 38 40 41 43 44 45 46 47 47 45 43 41 40 40 41 42 43 44 45 46 47 48 49 50 51 53 54 56 58 60 61 63 65 66 66 67 67 67 68 68 68 68 67 67 67 66 64 63 61 61 60 59 58 57 56 56 55 55 53 53 52 52 52 53 53 54 56 57 56 54 53 55 55 55 55 55 57 58 58 59 60 60 61 62
39 40 42 43 44 45 46 47 47 45 42 41 40 40 41 42 43 44 45 47 48 49 50 51 52 53 55 56 57 59 61 63 65 67 68 68 68 68 68 68 68 67 66 65 64 63 61 59 57 56 54 54 53 53 52 52 51 51 50 50 49 48 48 49 49 50 50 51 53 54 54 54 56 56 56 55 56 57 57 58 59 60 61 62 63
41 42 43 44 45 46 47 46 44 42 40 40 40 41 42 43 44 46 47 49 50 51 52 53 54 55 56 58 59 62 64 66 68 69 70 70 70 69 68 67 66 65 63 61 59 58 57 55 53 51 49 48 48 48 49 49 49 49 48 47 47 46 47 48 48 47 48 48 49 51 54 56 57 57 57 57 58 59 60 60 61 61 62 61 61
43 44 45 45 46 47 47 45 42 41 40 40 41 42 43 45 46 48 49 51 52 53 54 55 56 57 59 60 62 64 66 68 70 72 73 72 71 69 67 66 64 62 59 56 54 53 52 50 48 46 45 45 45 46 46 47 48 47 46 45 45 45 46 47 47 46 47 48 48 48 50 52 53 54 55 56 57 58 58 58 58 58 57 55 53
44 45 45 46 47 48 46 44 42 41 41 42 43 44 46 47 49 50 52 53 54 55 55 56 57 59 60 62 64 66 68 70 72 74 74 73 71 68 66 63 60 57 54 51 50 49 47 46 44 44 43 44 44 44 45 45 45 45 44 44 44 44 44 44 44 44 45 46 47 48 48 48 49 50 51 51 50 50 49 49 48 48 48 47 46
45 45 46 47 48 48 46 44 43 43 43 44 45 46 48 49 51 52 53 54 55 56 57 58 59 61 62 64 66 68 69 71 73 75 75 73 70 67 63 60 56 53 50 47 46 45 43 42 42 42 42 43 43 43 43 44 43 42 41 41 42 42 41 41 41 41 41 41 42 43 44 44 44 43 43 42 41 41 40 41 41 42 42 43 44
45 46 47 48 48 47 45 44 44 44 45 46 47 48 49 51 52 53 54 55 57 58 59 60 61 62 64 65 67 69 71 72 75 75 75 73 69 64 60 56 52 49 46 45 44 41 39 40 40 41 41 40 40 40 41 40 39 38 38 37 37 36 36 36 36 35 35 34 34 33 34 35 35 35 35 36 36 36 37 39 40 41 42 43 44
46 47 48 49 48 47 45 45 46 46 46 47 48 50 51 52 53 54 55 57 58 59 61 62 63 64 65 67 68 70 71 73 75 75 74 71 66 61 56 52 48 46 44 43 41 38 37 38 38 37 37 36 36 35 34 33 31 30 30 29 28 28 28 27 27 27 27 28 28 28 29 30 32 33 34 34 35 37 38 39 40 41 42 43 45
47 48 49 49 48 46 46 46 46 47 47 48 50 51 52 53 54 55 57 58 60 61 62 63 64 64 66 68 69 71 72 74 75 74 72 68 63 58 53 49 46 44 43 42 39 37 37 37 34 32 32 31 30 29 28 27 26 25 24 24 23 23 24 24 24 25 26 27 28 29 30 31 33 34 34 35 36 37 38 40 41 42 44 45 46
48 49 49 48 47 47 46 47 47 48 48 50 51 52 53 54 56 57 59 60 61 62 63 63 64 65 67 68 70 71 72 74 74 73 70 65 60 55 50 47 44 43 42 40 38 37 38 35 31 30 29 28 26 26 25 24 24 24 24 24 24 24 25 25 26 27 28 29 30 30 31 32 33 34 35 36 37 38 39 41 42 43 45 46 47
48 49 49 48 47 47 47 48 48 49 50 51 53 54 55 56 58 59 60 62 63 63 64 64 65 66 67 69 71 72 73 74 73 70 66 62 56 51 48 45 43 42 41 40 37 37 37 34 31 30 29 27 25 24 24 24 24 24 24 25 25 25 25 26 26 27 28 29 30 31 32 33 34 35 36 37 38 39 40 41 43 44 45 47 49
49 49 48 48 47 48 48 49 50 51 52 53 55 56 57 58 59 61 62 63 63 64 64 64 65 66 68 69 71 72 72 73 71 68 63 58 53 49 46 44 42 41 41 39 36 36 35 34 32 30 28 27 26 25 25 25 25 25 26 26 25 25 25 26 26 27 28 30 31 32 33 34 35 36 37 38 39 40 41 43 44 45 46 48 49
49 49 48 48 48 49 50 50 51 53 54 55 57 58 59 60 61 62 63 63 63 64 64 64 65 66 68 70 71 71 72 71 68 64 59 54 50 47 44 42 41 41 40 38 36 34 34 35 34 31 28 27 27 27 27 27 26 26 27 27 26 25 25 26 27 28 30 31 32 33 34 35 36 37 38 39 40 41 42 44 45 46 47 48 50
49 49 49 49 50 51 51 52 53 54 55 57 58 59 60 61 62 63 63 64 63 63 63 64 65 66 68 69 70 70 70 68 65 61 55 51 47 45 43 41 40 40 39 38 36 34 34 35 34 32 30 29 28 28 28 28 28 28 28 28 28 27 27 28 29 31 32 33 34 35 36 37 38 39 39 40 41 42 43 44 46 47 48 50 51
50 50 50 51 52 52 53 54 55 56 57 58 60 61 62 63 63 64 64 64 63 63 63 63 65 66 68 69 69 69 68 66 62 56 52 48 45 43 42 40 40 39 38 37 36 33 33 34 34 33 32 31 30 30 30 29 29 30 30 30 30 30 30 31 32 33 35 36 37 37 38 39 40 40 41 42 43 43 44 46 47 49 50 52 53
51 52 52 53 54 54 55 56 57 58 59 60 61 62 63 64 64 64 64 63 62 62 62 63 64 66 67 68 68 67 66 62 58 53 48 45 44 42 40 39 39 38 38 38 36 34 32 33 35 35 34 33 32 31 31 31 31 31 32 32 33 33 33 34 35 36 37 38 38 39 39 40 41 41 42 43 43 44 45 47 48 50 51 53 55
52 53 54 55 56 56 57 58 59 60 61 61 62 63 64 64 65 64 63 62 62 62 62 63 64 65 66 67 66 65 63 59 54 49 45 43 42 40 39 39 38 38 37 37 37 35 33 33 35 37 37 35 34 33 32 32 32 33 34 34 35 36 36 37 38 38 39 39 40 40 40 41 41 42 42 43 44 45 46 48 49 51 52 54 56
54 55 55 56 57 58 58 59 60 61 62 62 63 64 65 65 64 63 62 61 61 61 62 62 63 65 65 65 64 63 59 55 50 46 43 42 40 39 38 38 38 38 37 37 36 35 34 33 34 37 39 38 36 35 35 34 34 34 35 36 37 37 38 38 39 40 40 41 41 41 41 41 42 42 43 43 45 46 47 49 50 52 54 56 58
56 56 57 58 58 59 60 61 62 63 63 64 64 65 65 64 63 61 61 60 61 61 61 62 63 64 64 64 62 60 56 51 47 44 42 40 38 37 37 37 38 38 38 37 36 35 34 33 33 34 37 39 39 37 36 36 36 36 37 37 38 38 39 39 40 40 41 42 42 42 42 42 43 43 44 45 46 47 48 50 51 53 55 57 60
57 58 58 59 60 61 62 63 64 64 64 65 66 65 64 63 61 60 60 60 60 61 61 62 62 63 63 62 60 57 53 48 45 43 41 39 37 36 36 37 37 37 37 37 37 35 34 34 33 32 34 36 38 39 38 38 38 38 38 38 38 38 39 39 40 41 41 42 42 42 42 43 43 44 45 46 47 48 50 51 52 54 57 59 62
59 60 60 61 62 63 64 64 65 65 66 66 65 64 63 62 60 60 59 59 60 60 61 61 62 62 61 60 58 54 50 46 44 42 41 39 37 36 36 36 36 36 36 36 37 36 35 34 33 33 32 33 35 37 38 38 38 38 37 37 38 38 39 39 40 41 42 42 42 42 42 43 43 44 45 46 47 48 50 52 54 56 58 60 63
61 62 63 63 64 64 65 65 66 66 66 65 63 62 61 60 60 59 59 59 60 60 60 61 61 61 60 58 55 51 47 44 43 42 41 39 37 36 35 36 35 35 35 36 36 36 36 35 34 33 33 33 33 34 35 36 36 36 36 36 37 37 38 39 40 41 42 42 42 42 42 43 43 45 46 47 48 49 51 53 55 57 59 60 63
63 64 64 65 65 65 65 65 65 64 63 62 61 61 60 60 59 59 59 59 59 60 60 60 60 59 58 56 53 49 46 44 43 42 40 38 36 35 35 35 34 34 34 35 36 36 36 35 35 34 33 33 32 33 33 33 33 34 34 35 36 37 38 39 40 41 41 41 41 42 42 43 44 45 47 48 49 51 52 54 56 58 60 61 63
64 64 64 64 64 63 63 62 62 61 61 60 60 60 60 59 59 59 59 59 59 59 59 59 59 58 57 54 51 48 46 43 42 41 40 38 36 35 34 34 34 33 33 34 34 35 35 35 34 33 32 31 31 31 31 31 31 32 33 34 36 37 38 39 40 41 41 41 41 42 42 44 45 46 47 49 51 52 54 56 57 59 61 63 64
63 63 63 62 61 61 60 60 60 60 60 60 60 60 60 60 59 59 59 59 59 58 58 58 58 57 55 53 50 48 45 43 41 40 40 38 36 34 33 34 33 33 32 33 33 33 33 33 32 31 30 30 29 29 29 30 30 32 33 35 36 37 39 39 40 40 40 40 41 42 43 44 45 47 48 50 52 54 55 57 59 60 62 64 65
61 61 61 61 60 60 60 61 61 61 61 61 61 61 60 60 59 59 59 59 58 58 57 57 57 55 53 52 49 47 44 42 40 40 39 38 36 34 33 33 33 32 32 31 31 31 31 30 29 28 28 28 28 29 29 30 31 33 34 36 37 37 38 39 39 39 40 40 41 42 43 45 46 47 49 51 53 55 57 59 60 61 63 65 66
60 60 60 61 61 61 62 62 62 62 62 62 62 61 61 60 59 59 59 58 58 58 57 57 56 54 52 50 48 46 44 42 40 40 39 38 36 35 34 33 33 33 32 31 31 30 30 29 29 28 28 29 29 30 31 31 32 34 35 36 37 37 38 38 38 39 40 40 41 42 44 45 47 48 50 52 53 56 58 60 61 63 64 66 69
60 61 62 62 63 63 64 64 64 63 63 62 62 61 61 60 59 59 59 58 58 57 57 56 55 53 51 49 47 45 43 41 40 39 38 37 36 35 34 33 33 33 32 32 31 30 30 30 30 30 30 31 31 31 32 33 34 34 35 36 36 36 37 37 38 39 40 40 42 43 44 46 48 49 51 53 54 57 59 60 62 64 66 68 70
64 64 65 65 65 65 65 65 64 64 63 63 62 62 61 60 59 59 59 58 57 57 55 54 53 51 49 47 46 44 42 40 39 39 38 37 36 35 34 33 32 32 32 32 31 31 31 31 31 31 31 31 32 32 33 33 34 34 34 35 35 36 36 37 38 39 40 41 42 43 45 47 48 50 52 54 56 57 59 61 63 65 67 68 66
68 68 68 68 68 67 67 66 65 65 64 63 63 62 61 60 59 58 58 57 56 56 54 53 51 49 47 46 44 42 40 39 38 37 37 37 36 35 33 32 32 32 32 32 32 32 32 32 32 32 32 32 32 32 33 33 33 34 34 35 35 36 36 37 37 39 40 41 42 44 46 47 49 50 52 54 56 58 60 62 64 66 66 64 59
70 70 70 70 69 68 68 67 66 65 64 63 62 61 60 59 58 58 57 56 55 54 53 52 49 47 46 44 42 40 39 38 37 36 36 36 36 35 33 32 31 31 32 32 32 32 32 32 32 32 32 32 32 32 33 33 33 34 34 34 35 35 36 36 37 39 40 41 43 45 46 48 49 51 52 54 57 59 61 63 65 65 61 56 52
70 70 70 69 68 68 67 66 65 64 63 62 61 60 59 58 57 56 55 55 54 53 51 49 47 46 45 43 40 38 37 37 37 36 35 35 35 34 33 32 32 32 32 32 32 32 32 32 32 32 32 32 32 32 32 32 33 33 34 34 35 35 35 36 38 39 40 42 43 45 47 49 50 51 53 55 58 60 62 64 62 58 53 50 47
69 69 69 68 67 66 65 64 63 62 62 61 60 59 58 57 56 55 54 53 52 51 49 47 45 44 43 41 38 36 36 36 35 35 34 34 34 33 33 32 32 32 32 32 32 32 32 32 32 31 31 31 31 31 32 32 32 33 33 34 34 35 36 37 38 39 41 42 44 46 47 49 51 52 54 56 59 61 62 60 55 49 47 45 42
68 67 67 66 65 64 63 62 62 61 60 60 59 58 56 55 54 53 52 51 49 48 46 44 43 43 42 39 37 35 34 34 34 34 34 33 33 33 33 33 33 33 32 31 31 32 32 32 32 31 31 31 31 31 31 32 32 32 33 33 34 35 36 37 38 39 40 42 44 46 47 49 52 54 55 57 60 60 56 51 47 44 41 38 34
67 66 65 64 63 62 62 61 60 60 59 59 58 56 55 53 52 51 50 49 47 45 43 42 42 41 40 37 35 34 34 33 33 33 33 33 32 33 33 33 33 32 32 31 31 32 32 32 31 31 31 30 31 31 31 32 32 32 32 33 34 35 36 37 37 39 40 42 44 46 48 50 52 54 57 59 58 54 48 44 42 39 35 31 29
65 65 64 63 62 61 61 60 60 60 59 58 57 55 54 52 51 50 49 47 45 43 42 41 40 40 38 36 34 34 33 33 32 32 32 32 33 33 33 32 32 32 31 31 31 31 31 31 30 30 30 30 30 30 31 31 31 31 32 33 34 35 35 36 37 39 41 43 44 46 48 50 53 55 58 57 52 46 42 39 36 32 29 28 28
65 65 64 63 63 62 62 61 61 60 59 58 57 56 54 53 51 50 49 47 45 43 41 40 39 38 37 35 34 33 33 33 32 31 31 32 32 32 32 31 31 31 31 31 31 31 30 30 29 29 29 29 29 30 30 30 30 31 31 32 33 34 35 36 37 39 41 42 44 47 49 51 54 55 54 50 44 39 36 32 29 27 27 28 29
66 66 65 65 65 64 64 63 62 61 60 59 59 58 57 56 54 52 50 48 45 43 41 40 38 37 36 34 33 33 32 32 32 32 31 31 31 31 31 31 31 31 31 31 30 30 29 29 28 28 28 28 28 29 29 29 30 30 31 32 32 33 35 36 38 39 40 42 45 47 50 52 54 52 47 41 36 33 29 27 26 26 27 29 31
67 67 67 66 66 66 65 65 64 64 63 63 62 62 61 60 58 54 50 47 45 43 41 39 38 36 35 33 33 32 32 32 32 32 31 30 30 30 30 30 30 30 30 30 29 29 28 28 27 27 27 27 28 28 28 29 29 30 30 31 32 33 35 36 37 38 40 43 45 48 51 52 49 44 39 34 30 26 24 24 25 27 29 31 34
68 69 69 69 69 69 69 69 68 68 67 66 66 64 63 61 58 54 50 46 44 43 41 38 37 35 34 33 32 32 32 32 32 32 30 29 29 29 29 29 29 29 29 28 28 28 28 27 27 27 27 27 27 27 27 28 28 29 30 30 31 33 34 35 37 39 41 43 46 49 49 47 42 37 32 28 24 22 23 24 26 28 30 33 36
72 72 72 72 72 72 72 71 70 69 68 67 65 63 61 59 55 51 47 44 43 42 40 38 36 34 33 32 32 31 31 31 31 30 29 29 29 29 28 28 28 28 27 27 27 27 27 26 26 26 26 26 26 26 27 27 27 28 29 30 31 32 33 35 37 39 41 44 46 47 44 39 34 30 26 22 21 21 23 25 27 29 32 35 39
74 74 74 73 73 72 71 70 69 68 66 64 62 60 58 55 51 48 45 42 41 41 39 37 35 34 33 32 31 31 30 30 29 29 29 29 29 28 27 27 27 26 26 26 26 26 26 26 25 25 25 25 25 25 26 26 26 27 28 29 30 32 33 35 37 40 42 44 44 41 35 31 27 23 20 19 20 22 24 26 28 32 35 38 40
74 73 72 71 70 70 69 68 67 65 64 62 60 58 55 52 48 45 42 41 40 39 38 37 35 34 33 32 31 30 30 29 29 29 29 28 28 27 26 26 25 25 25 25 25 25 25 25 25 24 24 24 24 24 24 25 26 27 28 29 30 31 33 36 38 40 42 42 38 32 27 23 20 17 16 18 21 23 24 27 31 34 37 39 42
71 69 68 68 67 66 65 64 64 62 61 59 57 55 53 50 47 43 41 40 39 39 38 36 35 34 33 32 30 29 29 28 28 28 28 27 26 26 25 25 25 24 24 24 23 23 24 24 23 23 23 23 23 23 23 24 25 26 27 28 29 31 33 36 38 40 40 36 30 25 20 16 14 15 17 19 21 22 25 29 32 34 37 40 44
64 63 62 61 61 61 60 60 59 58 56 55 53 51 49 47 45 42 40 39 39 38 38 36 35 33 32 31 30 29 28 28 28 28 27 26 26 26 25 25 24 23 23 23 23 23 23 22 22 22 22 22 22 22 23 24 24 25 26 27 29 31 33 36 38 37 33 27 22 17 13 12 13 16 18 19 21 24 27 30 32 35 38 41 44
56 55 55 55 55 55 55 55 53 52 50 48 47 46 45 43 42 40 39 38 38 38 37 36 35 33 32 31 30 29 29 28 27 27 26 26 26 26 25 24 23 23 23 23 23 22 22 22 22 21 21 21 21 22 22 23 24 24 25 27 29 31 34 36 35 31 25 19 14 10 10 13 15 16 17 19 22 26 28 30 33 36 39 41 43
49 49 49 50 51 51 50 49 47 45 43 42 41 41 40 40 39 38 37 37 38 37 37 36 34 33 32 31 31 29 28 27 27 26 26 26 26 26 25 24 23 23 23 22 22 22 22 21 21 20 20 20 20 21 22 22 23 24 25 27 29 32 34 33 29 22 16 10 8 9 12 14 14 15 17 20 23 25 27 30 34 36 38 41 44
Wind_Direction
280 283 285 288 289 291 292 293 294 295 296 297 298 298 298 297 297 297 298 299 300 301 303 305 306 306 307 307 307 307 307 307 306 305 303 301 300 298 297 295 294 292 291 290 289 289 288 287 286 285 283 282 282 280 279 279 278 277 277 276 276 275 275 274 274 273 272 271 271 271 271 270 270 270 270 270 270 271 272 273 274 274 275 276 276
280 283 285 288 290 292 293 295 296 297 298 298 298 298 298 298 298 298 299 300 302 303 305 307 308 309 310 310 311 311 311 310 309 308 307 305 303 301 300 298 297 295 294 293 292 291 289 288 287 286 285 284 283 282 281 280 279 278 277 276 276 276 275 275 274 273 273 272 271 270 271 272 272 272 271 272 272 273 274 274 274 274 274 274 274
281 284 286 289 291 293 295 296 298 299 299 299 299 299 299 299 299 300 302 303 304 306 307 309 310 311 312 313 314 314 314 314 313 312 310 308 306 305 303 301 299 298 296 295 293 292 291 290 289 288 287 286 284 283 282 281 280 279 278 278 278 277 276 276 274 273 273 273 271 271 272 274 274 273 272 273 274 274 274 275 275 274 274 274 274
283 285 288 291 293 294 296 298 299 300 300 300 299 299 299 300 301 302 304 305 306 308 309 310 312 313 314 315 316 317 317 317 316 315 313 312 310 308 306 303 301 300 298 296 295 293 292 291 290 289 288 287 286 285 283 282 281 281 280 279 279 279 278 277 276 273 272 273 273 273 273 273 273 272 273 273 273 273 274 275 275 274 275 276 277
285 288 290 292 294 296 297 299 299 300 299 299 299 299 300 301 302 304 305 307 308 309 310 312 313 314 316 317 318 319 320 320 320 319 317 315 313 310 308 305 303 301 299 298 296 295 294 293 291 290 289 288 287 285 284 283 282 282 281 281 280 279 279 279 277 276 274 273 274 273 272 272 271 271 274 275 274 274 275 275 275 275 276 278 279
287 289 290 292 294 296 298 298 298 298 298 298 299 300 301 302 304 305 306 307 308 309 311 312 314 315 317 318 320 321 322 322 322 322 320 318 316 313 310 307 304 302 300 299 297 296 295 294 292 291 289 288 287 286 285 284 283 283 282 281 280 279 279 279 278 277 276 276 275 272 271 271 272 273 275 275 275 276 277 277 277 278 278 279 280
287 289 290 292 294 296 297 297 297 296 297 298 299 301 303 304 305 306 306 307 308 309 311 312 314 315 317 319 320 322 323 324 324 324 322 320 318 314 311 308 305 303 301 299 298 296 295 294 292 290 289 288 287 287 287 286 286 285 283 282 281 280 280 280 279 278 278 277 277 276 273 272 273 275 275 275 276 277 278 278 279 280 280 280 281
286 288 290 292 293 295 296 296 295 295 296 298 300 302 303 304 305 306 307 308 308 310 311 313 314 315 317 318 320 322 323 324 325 325 324 322 319 315 311 308 305 303 301 300 298 296 295 293 291 290 289 288 287 288 288 287 287 285 284 282 282 282 282 282 281 280 280 278 278 279 279 276 275 276 277 277 278 279 279 279 280 280 280 280 281
285 287 289 291 293 295 295 295 294 294 296 298 301 302 304 304 305 306 307 308 309 310 311 312 314 315 316 318 319 321 322 324 325 325 324 322 319 315 311 307 304 302 301 299 297 296 294 292 290 289 289 288 288 287 287 287 286 284 283 283 283 284 284 284 283 282 282 281 279 279 281 280 279 279 279 280 281 281 280 280 281 281 282 282 282
284 287 289 291 293 295 294 294 293 295 297 299 301 303 304 305 305 306 307 308 309 310 311 312 313 314 316 317 318 320 321 323 324 325 324 322 318 314 309 306 303 302 301 299 297 296 293 291 290 290 290 289 289 288 287 287 286 284 283 283 284 284 284 284 284 283 283 283 281 281 282 282 281 281 281 282 282 282 282 282 283 284 285 285 284
285 287 289 291 293 294 293 293 293 295 298 300 302 303 304 305 306 306 307 308 309 310 310 311 312 314 315 316 318 319 320 322 324 324 323 321 317 312 308 304 302 301 300 298 297 294 292 291 291 291 290 290 290 290 289 288 287 285 284 284 284 285 284 284 284 284 284 284 284 284 284 283 283 283 284 284 284 284 284 285 285 285 285 285 285
285 287 289 291 292 292 292 293 294 296 299 300 302 303 304 305 306 306 308 308 309 310 310 311 312 313 314 316 317 318 320 321 323 323 322 319 315 310 306 303 302 300 298 298 296 292 292 292 290 290 290 290 292 293 293 293 292 290 290 289 289 289 288 288 288 288 288 288 288 288 287 287 287 287 286 286 286 286 286 286 286 286 286 286 286
285 287 289 291 291 291 292 293 295 297 299 300 301 303 303 304 305 306 307 308 309 310 310 311 312 313 314 315 317 318 319 321 322 322 321 318 313 308 304 302 301 298 297 297 294 290 292 292 288 288 290 291 293 295 296 297 297 297 297 296 296 296 295 295 294 293 292 291 290 290 290 290 289 289 289 289 289 289 288 288 288 287 287 287 287
285 287 289 290 290 291 292 293 295 297 299 300 301 302 303 303 305 306 307 308 309 309 310 311 312 313 314 315 316 318 319 321 322 321 319 315 310 306 302 301 299 297 296 296 292 287 290 290 286 286 288 289 292 294 296 297 297 298 299 298 298 298 297 296 295 295 294 293 293 293 292 292 292 291 291 291 290 290 289 289 289 289 289 289 289
286 287 288 289 289 290 292 294 296 297 299 300 301 302 302 303 305 306 307 308 308 309 310 311 311 313 314 315 316 318 319 321 321 320 317 313 308 303 301 299 298 295 295 295 290 286 288 288 284 284 285 287 290 293 294 296 297 298 299 299 299 299 298 297 297 297 297 296 296 296 295 294 293 293 292 292 291 291 291 291 291 291 292 292 292
286 287 287 288 289 291 292 294 296 298 299 300 301 302 303 304 305 306 307 308 308 309 310 310 311 312 313 315 316 318 319 321 321 319 315 310 305 301 299 298 296 294 293 293 289 286 287 287 284 282 283 287 290 292 292 293 295 297 297 297 298 298 298 298 299 299 299 298 298 297 296 296 295 294 294 293 293 293 293 293 293 293 294 295 296
286 286 287 288 289 291 293 295 296 298 299 300 301 303 304 305 306 307 308 308 309 309 310 310 311 312 313 315 316 318 320 320 319 316 312 307 302 299 298 297 294 293 292 291 287 285 286 286 283 280 281 285 288 290 290 291 293 296 297 297 297 298 299 299 300 301 301 300 299 298 297 297 296 295 295 295 295 295 295 295 295 295 296 296 297
286 286 287 288 289 291 293 295 296 298 299 300 302 303 304 305 306 307 308 308 308 309 310 310 311 312 314 315 317 318 319 319 317 314 309 304 300 298 297 295 293 292 291 289 285 282 283 284 280 277 279 284 286 286 287 289 292 295 296 296 296 298 300 301 302 302 302 301 300 299 299 298 297 297 296 296 296 296 296 296 297 297 298 298 298
286 287 288 289 290 291 293 295 297 298 299 300 301 303 304 305 306 307 307 308 308 309 309 310 311 312 314 315 317 318 319 318 315 311 305 300 298 297 296 294 293 292 290 288 284 281 281 281 278 275 277 281 283 285 285 286 289 292 294 294 295 297 299 301 301 302 301 300 300 299 299 298 298 298 298 298 298 298 298 299 299 299 299 299 299
287 288 289 289 290 292 294 296 297 298 299 300 301 302 303 304 306 306 307 307 308 309 309 310 311 312 313 315 316 317 317 316 312 307 301 298 297 296 295 293 292 291 289 287 284 281 281 281 277 273 273 276 279 281 282 283 285 288 290 292 293 295 297 298 299 300 300 299 299 299 299 299 299 298 298 298 299 299 299 300 300 300 299 299 300
288 288 289 290 291 293 295 296 297 298 298 299 300 301 302 304 305 306 306 307 308 308 309 310 311 312 313 314 316 316 315 313 309 303 298 296 295 295 294 292 291 289 288 287 284 282 283 284 279 273 270 272 275 277 278 280 282 285 287 289 291 293 295 296 297 298 298 299 299 298 298 298 298 298 298 299 299 299 300 300 300 300 300 301 301
287 288 289 291 292 294 295 296 297 297 298 298 299 301 302 303 304 305 306 306 307 307 308 309 310 311 313 314 315 315 313 310 305 300 296 294 294 294 293 292 290 288 287 285 284 282 283 285 284 277 271 270 271 274 275 277 279 282 284 286 288 290 292 293 295 296 297 298 298 298 298 298 298 298 299 299 299 300 300 300 301 301 302 302 303
288 289 290 291 292 294 295 295 296 296 297 298 300 301 302 303 304 305 305 306 306 307 307 308 309 311 312 313 314 313 310 306 301 296 293 292 293 293 292 291 289 287 285 285 285 284 283 283 285 282 276 272 270 272 274 276 278 280 282 284 286 288 290 291 294 295 296 297 298 298 298 298 298 299 299 299 300 301 301 301 302 303 304 305 306
288 289 290 291 292 293 294 295 296 297 298 298 300 301 302 303 303 304 304 305 305 306 307 307 309 310 311 312 312 310 307 301 296 293 291 290 291 292 293 291 289 287 285 284 285 285 284 283 283 283 281 277 274 273 275 276 278 279 281 284 286 287 289 291 293 295 296 297 298 298 298 298 298 299 300 301 302 302 303 304 305 306 307 308 309
288 289 290 291 292 293 294 295 296 297 297 298 299 300 301 302 303 303 303 304 304 305 305 306 308 309 310 311 310 307 303 297 293 291 289 288 289 292 292 291 290 288 286 286 285 285 285 284 282 281 281 279 277 276 276 277 278 279 281 283 285 287 289 291 293 295 296 297 297 297 297 298 299 300 301 302 303 304 305 307 308 308 310 311 311
289 290 291 292 293 293 294 295 295 296 297 298 299 300 301 301 302 302 302 302 303 304 304 306 307 308 309 309 307 304 299 293 290 289 287 287 288 290 291 291 291 290 288 287 286 285 285 285 284 282 281 279 278 277 277 277 278 279 281 283 285 288 290 292 294 295 296 296 297 297 298 300 301 302 303 304 305 306 307 309 310 311 311 312 312
289 290 291 292 292 293 294 294 295 296 297 298 299 299 300 301 301 301 301 301 302 303 304 305 306 307 307 307 304 300 295 290 288 287 286 285 286 288 290 291 291 290 289 287 286 285 285 285 285 284 283 282 280 279 279 279 280 281 283 285 287 289 291 293 295 296 296 297 298 299 300 301 302 303 304 305 306 307 309 310 311 311 312 312 312
290 290 291 292 292 293 294 295 296 297 298 298 299 299 300 300 300 300 300 300 301 302 303 304 305 306 305 303 300 296 292 289 288 286 283 282 284 286 288 289 289 289 288 287 286 284 284 284 285 285 285 284 283 282 282 282 282 283 285 287 289 291 293 294 295 296 296 297 298 299 301 302 303 305 306 307 308 309 310 311 311 312 312 312 312
291 292 293 294 295 296 296 297 297 298 298 298 299 299 299 299 299 299 299 299 300 301 303 303 304 304 303 300 297 293 290 288 287 284 281 280 282 284 286 286 286 286 287 287 286 285 284 284 284 285 285 285 285 284 284 284 285 286 287 289 291 292 293 294 295 296 297 298 299 301 302 303 305 306 307 309 310 310 311 311 312 312 313 313 313
293 294 295 296 297 297 297 297 297 297 298 298 298 298 298 298 298 298 298 299 300 301 302 302 302 301 299 296 293 291 288 286 285 282 279 278 279 281 283 283 283 283 284 285 285 286 286 286 286 286 286 285 285 285 285 286 286 287 289 290 291 292 293 294 295 296 297 299 300 302 304 305 306 308 309 311 311 311 312 312 313 313 313 313 314
294 295 295 296 296 296 296 296 297 297 297 297 297 297 297 297 297 297 297 298 299 300 300 301 300 298 296 293 290 288 286 285 283 281 278 276 277 279 281 281 281 281 282 282 283 284 285 286 286 286 285 285 285 286 286 286 287 288 289 290 291 292 293 295 296 297 299 300 302 303 305 306 308 309 310 311 311 312 312 313 313 314 314 314 314
294 294 294 295 295 295 296 296 296 297 297 297 297 297 297 296 296 296 297 297 298 299 299 299 297 295 293 290 288 286 285 283 282 280 276 274 275 277 279 280 281 281 281 280 281 282 283 284 284 284 285 285 285 286 286 287 287 288 289 291 292 294 295 296 297 298 300 302 303 305 306 308 309 310 311 311 312 312 313 313 314 315 315 315 316
295 295 295 296 296 296 297 297 297 297 297 297 297 296 296 296 296 296 296 297 298 298 298 296 294 292 289 286 285 285 283 281 280 278 276 274 274 275 276 278 280 280 280 280 281 281 281 282 283 284 285 285 286 287 287 288 289 290 291 292 293 294 295 296 297 299 301 303 305 306 308 309 310 311 312 312 312 313 313 314 315 315 316 316 316
296 296 297 297 297 297 297 297 297 297 296 296 296 296 295 295 295 295 296 297 297 296 295 293 291 288 285 284 283 283 281 279 277 277 276 274 274 274 275 276 277 278 279 280 281 281 281 282 283 284 285 285 286 288 289 290 291 291 292 293 294 294 295 297 298 301 303 305 306 308 309 309 311 312 313 313 313 314 315 315 316 316 317 317 316
296 296 296 296 296 296 296 296 296 295 295 295 295 295 295 295 295 296 296 296 295 294 292 290 288 285 283 282 282 282 279 276 275 274 274 274 274 273 273 273 274 276 277 278 279 281 282 283 283 284 285 285 287 288 289 290 291 291 292 293 294 295 297 298 300 303 305 307 308 309 310 311 312 313 313 313 314 315 316 317 317 318 317 316 316
295 295 295 295 295 295 295 294 294 294 294 294 294 294 295 295 296 296 295 294 293 291 289 287 285 283 282 281 281 280 278 275 273 273 273 273 273 273 272 272 273 275 276 277 279 280 281 282 283 283 284 286 287 288 289 289 290 291 293 294 296 297 299 301 303 305 307 308 309 310 311 312 313 314 314 315 316 316 317 318 318 318 318 317 318
294 294 294 294 294 293 293 293 293 293 293 293 294 294 295 295 295 295 293 292 290 288 287 285 283 282 281 280 280 278 276 274 272 271 271 271 271 272 272 273 274 275 276 278 280 281 281 282 283 283 285 286 287 288 288 289 290 292 294 295 297 299 301 303 305 307 308 309 310 311 312 314 314 315 316 316 317 318 319 319 319 319 319 320 323
293 293 293 292 292 292 292 292 292 292 293 293 294 294 295 294 294 293 291 290 288 287 285 283 281 280 280 279 278 276 274 272 271 269 269 269 270 271 272 273 274 275 277 279 280 280 281 282 283 284 286 287 287 288 289 290 291 293 295 297 298 300 303 305 306 308 309 310 311 313 314 315 315 316 316 317 318 320 320 320 320 320 322 325 328
292 291 291 291 291 291 291 291 292 292 292 293 293 293 293 293 292 291 290 289 288 285 283 281 280 280 279 278 276 274 272 270 269 268 268 268 269 269 270 272 273 275 276 278 279 279 280 281 283 284 286 286 287 288 290 291 293 294 296 298 300 302 304 306 308 309 310 311 313 314 315 315 316 317 318 319 320 322 322 322 322 324 327 331 333
290 290 290 290 290 290 290 291 291 291 291 291 291 291 291 291 291 290 289 288 287 284 282 280 280 279 278 277 274 272 270 268 267 266 266 267 267 269 270 272 273 274 276 277 278 279 280 282 283 284 285 286 287 289 290 292 294 295 297 299 301 303 306 308 309 310 312 313 314 315 315 316 317 318 320 321 323 324 323 324 327 331 334 336 337
289 289 289 290 290 290 290 290 290 290 290 290 289 289 289 290 290 290 289 287 285 283 280 279 278 278 277 275 273 270 269 267 266 265 265 266 267 268 270 271 273 274 275 276 277 279 281 282 283 283 284 286 288 289 291 293 295 297 299 301 303 305 308 309 310 312 313 315 315 315 316 318 319 320 321 323 325 326 326 329 335 339 340 340 340
290 290 290 290 290 289 289 289 289 289 289 289 288 289 289 289 289 289 287 285 282 281 279 277 276 276 275 273 270 268 267 266 264 264 264 265 267 269 270 271 272 273 274 276 277 280 281 282 282 284 285 287 288 290 292 294 296 299 301 303 305 307 308 310 312 313 315 315 316 317 319 320 321 322 323 325 328 330 333 339 344 345 345 344 342
291 291 291 291 290 290 289 289 289 288 288 288 288 288 288 288 288 287 285 282 279 277 276 275 275 274 274 272 269 267 265 264 263 263 263 265 267 268 269 270 271 272 274 276 278 279 280 281 283 285 286 287 289 291 293 295 298 300 302 305 306 308 309 311 313 315 315 316 318 319 320 321 322 324 326 329 334 338 343 349 351 349 347 345 342
292 292 291 291 291 290 289 289 288 288 287 287 286 286 286 286 285 284 282 278 275 273 273 272 272 272 272 270 268 266 264 263 263 263 263 264 265 267 268 269 271 272 274 276 277 278 279 281 283 284 286 287 289 292 294 297 299 301 303 305 306 308 311 314 315 316 317 319 320 321 322 323 324 327 331 336 343 349 353 354 353 351 348 345 344
292 291 291 290 290 289 288 288 287 286 286 285 285 284 284 283 283 281 277 273 270 269 269 269 269 270 269 268 266 264 263 263 263 263 263 263 264 265 267 269 270 272 274 275 276 277 279 280 281 283 285 287 290 293 295 297 300 302 303 305 308 311 314 315 316 317 320 321 321 322 323 324 326 331 338 346 354 357 358 356 353 350 349 348 346
291 291 290 290 289 288 288 287 286 285 285 284 283 282 281 281 279 277 273 268 264 264 265 265 266 266 266 265 264 262 262 262 263 262 262 262 263 264 266 268 270 272 273 274 275 276 278 279 280 282 284 287 290 293 295 298 300 302 304 307 311 313 315 316 318 319 321 321 322 323 325 327 331 339 349 359 3 2 359 355 353 352 351 349 345
292 291 291 290 289 289 288 287 286 284 283 282 281 279 278 277 276 273 268 263 259 258 259 260 262 263 264 263 262 261 260 261 261 260 260 261 262 264 265 266 267 269 270 272 274 275 276 278 279 281 284 287 290 293 296 298 301 303 307 310 313 315 316 317 319 321 321 322 323 325 328 332 340 353 4 8 7 3 358 356 355 354 351 347 345
292 292 291 291 290 289 288 286 285 283 281 280 278 276 275 273 271 268 263 258 254 252 254 255 257 259 260 261 261 260 258 258 258 258 259 261 262 262 263 263 265 267 269 270 271 273 275 277 279 281 284 287 290 293 296 299 301 305 309 312 314 315 317 319 320 321 322 323 326 330 336 344 359 13 16 11 5 2 360 358 356 353 349 348 348
292 292 292 292 291 290 288 287 285 283 280 278 275 273 270 268 266 263 258 253 249 247 248 250 252 254 256 258 258 256 255 254 255 256 258 259 260 260 261 262 264 266 267 267 269 271 273 276 279 281 284 288 291 294 297 299 303 307 310 312 315 317 318 320 322 322 324 327 331 338 351 11 25 26 19 9 4 4 2 358 354 351 351 351 352
293 294 294 294 293 292 290 288 285 283 280 276 273 269 265 262 260 256 252 248 244 242 243 245 247 250 252 254 254 253 253 253 254 255 256 257 258 259 260 261 263 264 265 266 268 270 273 276 279 282 286 289 291 294 298 301 305 308 311 314 317 319 320 322 323 324 327 333 341 358 24 36 34 26 17 11 8 6 1 355 353 354 354 354 354
295 296 298 298 297 295 292 289 286 282 278 274 270 265 261 257 254 250 246 243 240 238 238 240 242 245 247 249 250 251 251 251 252 252 253 255 256 257 258 259 260 262 264 265 267 270 273 276 279 283 286 289 291 295 299 303 306 310 314 316 318 320 322 323 325 328 336 348 13 41 48 44 33 24 19 16 10 3 358 356 357 357 356 356 357
Height
5622 5621 5620 5619 5618 5616 5615 5614 5613 5611 5610 5608 5606 5604 5602 5601 5599 5597 5595 5592 5590 5588 5586 5583 5581 5578 5576 5573 5570 5567 5564 5561 5557 5554 5551 5548 5545 5542 5539 5537 5534 5531 5528 5525 5523 5520 5517 5515 5512 5510 5507 5504 5502 5499 5497 5495 5492 5490 5488 5486 5484 5482 5481 5480 5479 5479 5479 5479 5479 5478 5477 5477 5477 5477 5477 5476 5476 5476 5476 5475 5475 5474 5473 5472 5471
5618 5617 5615 5614 5613 5612 5610 5609 5608 5606 5605 5603 5601 5599 5597 5595 5593 5591 5589 5587 5585 5583 5580 5578 5575 5572 5569 5566 5563 5560 5557 5553 5550 5547 5543 5540 5537 5534 5531 5527 5524 5521 5518 5515 5512 5509 5506 5504 5501 5498 5496 5493 5491 5488 5486 5484 5482 5480 5478 5476 5474 5473 5471 5471 5470 5469 5469 5469 5469 5468 5468 5468 5468 5468 5468 5467 5467 5467 5467 5466 5466 5465 5465 5463 5462
5613 5612 5611 5610 5608 5607 5605 5604 5602 5601 5599 5597 5595 5593 5591 5589 5588 5586 5584 5582 5579 5577 5575 5572 5569 5566 5563 5560 5557 5553 5550 5546 5543 5539 5535 5532 5528 5525 5521 5518 5515 5511 5508 5504 5501 5498 5495 5493 5490 5487 5485 5482 5480 5478 5475 5473 5472 5470 5468 5466 5465 5464 5463 5462 5461 5461 5460 5460 5460 5460 5460 5460 5460 5460 5460 5460 5459 5459 5458 5458 5458 5457 5456 5455 5453
5607 5607 5606 5605 5603 5602 5600 5598 5597 5595 5593 5591 5589 5588 5586 5584 5582 5580 5578 5576 5574 5571 5569 5566 5563 5560 5557 5554 5550 5547 5543 5539 5535 5531 5527 5523 5519 5516 5512 5508 5505 5501 5497 5494 5491 5488 5485 5482 5479 5477 5474 5472 5470 5468 5466 5464 5462 5461 5460 5458 5457 5456 5455 5454 5453 5453 5453 5452 5452 5452 5453 5453 5453 5452 5452 5452 5452 5451 5450 5450 5449 5448 5448 5447 5445
5602 5601 5600 5599 5598 5596 5595 5593 5591 5589 5587 5586 5584 5582 5580 5579 5577 5575 5572 5570 5568 5565 5563 5560 5557 5554 5551 5547 5544 5540 5536 5532 5528 5523 5519 5515 5511 5507 5503 5499 5495 5491 5488 5484 5481 5478 5475 5472 5470 5467 5465 5463 5461 5459 5458 5456 5455 5453 5452 5451 5450 5448 5448 5447 5446 5446 5445 5445 5445 5445 5445 5445 5445 5445 5445 5444 5444 5443 5443 5442 5441 5440 5440 5439 5438
5596 5595 5595 5593 5592 5591 5589 5588 5586 5584 5582 5581 5579 5577 5575 5573 5571 5569 5567 5564 5562 5559 5556 5554 5551 5547 5544 5541 5537 5533 5529 5525 5521 5516 5511 5507 5502 5498 5494 5489 5485 5482 5478 5475 5472 5469 5466 5463 5461 5459 5457 5455 5454 5452 5451 5449 5448 5447 5445 5444 5443 5442 5441 5441 5440 5439 5439 5438 5438 5438 5438 5438 5438 5437 5437 5437 5437 5436 5435 5435 5433 5432 5432 5432 5431
5591 5590 5589 5588 5587 5585 5584 5583 5581 5579 5578 5576 5574 5572 5570 5568 5566 5564 5561 5559 5556 5553 5550 5547 5544 5541 5537 5534 5530 5526 5522 5518 5514 5509 5504 5499 5494 5489 5485 5480 5476 5473 5470 5467 5464 5461 5458 5456 5454 5452 5451 5449 5448 5446 5445 5443 5442 5440 5439 5438 5437 5436 5435 5434 5434 5433 5432 5432 5431 5431 5431 5431 5431 5430 5430 5430 5429 5429 5428 5427 5426 5425 5424 5424 5423
5586 5585 5584 5583 5581 5580 5579 5577 5576 5574 5573 5571 5568 5566 5564 5562 5560 5558 5555 5553 5550 5547 5544 5541 5537 5534 5530 5527 5523 5519 5515 5511 5506 5501 5496 5491 5486 5481 5476 5472 5468 5465 5462 5459 5457 5454 5452 5450 5448 5447 5445 5444 5442 5441 5439 5438 5436 5434 5433 5432 5431 5430 5429 5428 5428 5427 5427 5426 5426 5425 5425 5424 5424 5424 5423 5423 5422 5421 5420 5419 5418 5417 5417 5417 5415
5581 5580 5579 5577 5576 5574 5573 5572 5570 5569 5567 5565 5563 5561 5559 5556 5554 5552 5549 5546 5543 5541 5538 5534 5531 5527 5524 5520 5516 5512 5508 5504 5499 5494 5489 5483 5478 5473 5469 5464 5461 5458 5455 5453 5450 5448 5446 5444 5443 5442 5440 5439 5437 5436 5434 5432 5431 5429 5428 5426 5425 5424 5424 5423 5422 5422 5421 5421 5420 5420 5419 5418 5418 5417 5417 5416 5415 5415 5413 5412 5411 5410 5409 5409 5409
5576 5575 5573 5572 5570 5569 5567 5566 5564 5563 5561 5559 5557 5555 5553 5551 5548 5545 5543 5540 5537 5534 5531 5528 5525 5521 5517 5513 5509 5505 5501 5496 5492 5486 5481 5475 5470 5466 5461 5458 5454 5452 5450 5447 5445 5443 5441 5440 5438 5437 5436 5434 5432 5431 5429 5427 5425 5424 5422 5421 5420 5419 5418 5418 5417 5416 5416 5415 5414 5414 5413 5412 5412 5411 5411 5410 5410 5409 5407 5406 5405 5404 5403 5402 5402
5570 5569 5568 5566 5565 5563 5562 5560 5559 5557 5555 5553 5551 5549 5547 5544 5542 5539 5536 5533 5530 5527 5524 5521 5518 5514 5511 5507 5503 5498 5494 5489 5484 5479 5473 5468 5463 5459 5455 5451 5449 5447 5444 5442 5440 5438 5437 5435 5434 5433 5431 5430 5428 5426 5424 5422 5420 5419 5417 5416 5415 5414 5414 5413 5412 5412 5411 5410 5410 5409 5408 5408 5407 5407 5406 5405 5405 5404 5402 5401 5400 5398 5398 5396 5395
5565 5563 5562 5560 5559 5557 5556 5554 5553 5551 5549 5547 5545 5543 5540 5538 5535 5532 5530 5527 5524 5521 5518 5514 5511 5508 5504 5500 5496 5492 5487 5482 5477 5472 5466 5461 5456 5452 5448 5446 5444 5442 5440 5438 5436 5434 5433 5431 5430 5429 5427 5425 5423 5422 5420 5418 5416 5415 5413 5412 5411 5411 5410 5409 5409 5408 5407 5407 5406 5405 5405 5404 5404 5402 5401 5401 5400 5399 5397 5396 5394 5393 5392 5391 5389
5559 5557 5556 5554 5553 5552 5550 5549 5547 5545 5543 5541 5539 5536 5534 5532 5529 5526 5523 5520 5517 5514 5511 5508 5504 5501 5497 5493 5489 5485 5480 5475 5470 5465 5459 5454 5449 5446 5443 5440 5439 5437 5435 5433 5431 5430 5429 5427 5426 5425 5423 5421 5420 5418 5416 5415 5413 5412 5411 5410 5409 5408 5407 5407 5406 5405 5405 5404 5403 5402 5402 5401 5400 5398 5397 5396 5395 5393 5392 5390 5389 5388 5386 5385 5384
5553 5551 5550 5549 5547 5546 5544 5542 5541 5539 5537 5535 5532 5530 5528 5525 5523 5520 5516 5513 5510 5507 5504 5501 5497 5494 5490 5486 5482 5478 5473 5468 5463 5457 5452 5447 5443 5440 5437 5436 5434 5432 5430 5429 5427 5426 5425 5423 5422 5421 5419 5418 5416 5415 5413 5412 5411 5409 5408 5407 5407 5406 5405 5404 5404 5403 5402 5401 5400 5399 5398 5397 5396 5394 5392 5392 5390 5389 5387 5386 5384 5383 5380 5379 5378
5547 5545 5544 5543 5541 5539 5538 5536 5534 5532 5530 5528 5526 5523 5521 5519 5516 5513 5510 5506 5503 5500 5497 5493 5490 5486 5483 5479 5475 5470 5466 5461 5456 5450 5445 5441 5437 5435 5433 5431 5429 5427 5426 5424 5423 5422 5421 5419 5418 5416 5415 5414 5412 5411 5410 5409 5408 5407 5406 5405 5404 5403 5403 5402 5401 5400 5399 5398 5396 5395 5394 5393 5391 5390 5388 5387 5386 5384 5382 5381 5379 5377 5375 5372 5370
5541 5539 5538 5536 5535 5533 5531 5529 5527 5525 5523 5521 5519 5516 5514 5512 5509 5506 5503 5499 5496 5493 5490 5486 5483 5479 5476 5472 5468 5463 5459 5454 5449 5443 5439 5435 5432 5430 5428 5426 5425 5423 5421 5420 5419 5418 5416 5415 5414 5412 5411 5410 5409 5408 5406 5405 5405 5404 5403 5402 5402 5401 5400 5399 5398 5397 5395 5394 5393 5391 5390 5388 5386 5385 5383 5382 5380 5379 5377 5375 5373 5372 5369 5366 5363
5534 5533 5532 5530 5528 5527 5525 5523 5521 5518 5516 5514 5511 5509 5507 5505 5502 5499 5495 5492 5489 5486 5482 5479 5476 5472 5468 5465 5460 5456 5451 5447 5442 5437 5433 5430 5427 5425 5423 5422 5420 5418 5417 5416 5414 5413 5412 5411 5410 5408 5407 5406 5405 5404 5403 5402 5402 5401 5400 5399 5398 5398 5397 5396 5395 5393 5392 5390 5389 5387 5385 5384 5382 5381 5379 5377 5375 5374 5372 5370 5368 5366 5364 5361 5359
5528 5527 5525 5524 5522 5520 5518 5516 5514 5512 5509 5507 5504 5502 5499 5497 5494 5491 5488 5485 5481 5478 5475 5472 5468 5465 5461 5457 5453 5449 5444 5440 5435 5431 5427 5425 5422 5420 5419 5417 5415 5414 5413 5411 5410 5409 5408 5406 5405 5404 5403 5402 5401 5400 5400 5399 5398 5398 5397 5396 5395 5394 5394 5393 5391 5390 5388 5387 5385 5383 5381 5379 5377 5376 5374 5372 5371 5369 5367 5365 5362 5360 5358 5355 5353
5521 5520 5518 5517 5516 5514 5512 5510 5507 5505 5503 5500 5498 5495 5492 5490 5487 5484 5480 5477 5474 5471 5468 5464 5461 5457 5454 5450 5446 5442 5438 5433 5429 5425 5422 5420 5418 5416 5414 5412 5411 5409 5408 5407 5406 5404 5403 5402 5401 5400 5399 5398 5397 5396 5396 5395 5395 5394 5394 5393 5392 5391 5390 5389 5388 5386 5385 5383 5381 5379 5377 5375 5373 5371 5369 5367 5365 5363 5361 5359 5357 5354 5351 5348 5346
5515 5513 5512 5510 5508 5506 5504 5502 5500 5498 5495 5493 5491 5488 5485 5483 5480 5476 5473 5469 5466 5464 5460 5457 5453 5450 5447 5443 5439 5435 5431 5427 5423 5420 5417 5415 5413 5411 5409 5408 5406 5405 5404 5402 5401 5400 5399 5397 5397 5396 5395 5394 5393 5392 5392 5392 5391 5391 5390 5389 5389 5388 5387 5386 5384 5383 5381 5378 5376 5374 5372 5370 5368 5367 5365 5362 5360 5359 5356 5354 5351 5348 5345 5342 5338
5508 5506 5505 5503 5501 5499 5497 5495 5492 5490 5488 5486 5483 5481 5478 5476 5473 5469 5465 5462 5459 5456 5453 5450 5446 5443 5440 5436 5433 5429 5425 5421 5418 5415 5412 5410 5408 5406 5405 5403 5402 5400 5399 5398 5396 5395 5394 5393 5392 5391 5390 5390 5389 5388 5388 5388 5387 5387 5386 5385 5385 5384 5383 5382 5380 5378 5376 5374 5372 5370 5368 5366 5364 5362 5361 5358 5356 5354 5351 5349 5346 5342 5339 5335 5332
5501 5499 5497 5495 5493 5491 5489 5487 5485 5483 5480 5478 5476 5473 5471 5468 5465 5462 5458 5454 5451 5448 5445 5442 5439 5436 5433 5429 5426 5422 5419 5415 5412 5410 5408 5406 5403 5402 5400 5398 5397 5396 5395 5393 5392 5391 5390 5388 5387 5386 5386 5385 5384 5384 5384 5383 5383 5383 5382 5381 5381 5379 5378 5377 5375 5374 5372 5369 5368 5366 5364 5362 5360 5358 5356 5354 5351 5349 5346 5343 5340 5336 5333 5328 5324
5494 5492 5490 5488 5486 5483 5481 5479 5477 5475 5473 5470 5468 5465 5462 5460 5457 5454 5450 5447 5444 5441 5438 5435 5432 5429 5426 5423 5419 5416 5412 5409 5407 5404 5403 5401 5399 5397 5395 5394 5392 5391 5390 5389 5387 5386 5385 5384 5383 5382 5381 5381 5380 5379 5379 5379 5379 5379 5378 5377 5376 5375 5374 5372 5371 5369 5367 5365 5363 5361 5359 5357 5355 5353 5351 5348 5346 5343 5340 5337 5334 5329 5326 5321 5315
5486 5484 5482 5480 5478 5476 5474 5472 5469 5467 5465 5462 5460 5457 5454 5451 5449 5446 5443 5440 5437 5434 5431 5428 5425 5422 5419 5416 5413 5409 5406 5404 5401 5399 5397 5396 5394 5392 5391 5389 5387 5386 5385 5384 5383 5381 5380 5379 5378 5377 5376 5376 5376 5375 5375 5375 5375 5374 5374 5373 5372 5370 5369 5368 5366 5364 5362 5360 5358 5356 5354 5352 5349 5347 5345 5343 5340 5337 5334 5331 5327 5323 5318 5313 5307
5477 5476 5474 5472 5470 5468 5466 5464 5461 5459 5457 5454 5451 5449 5446 5443 5440 5438 5435 5432 5429 5426 5424 5421 5418 5415 5412 5409 5406 5403 5400 5398 5396 5394 5392 5391 5389 5388 5386 5384 5383 5381 5380 5379 5378 5377 5375 5374 5373 5372 5372 5371 5371 5371 5371 5370 5370 5370 5369 5368 5367 5366 5364 5363 5361 5359 5357 5355 5353 5351 5349 5347 5345 5342 5340 5337 5335 5332 5328 5324 5320 5316 5312 5307 5300
5469 5467 5466 5464 5462 5460 5458 5456 5453 5451 5448 5446 5443 5440 5438 5435 5433 5430 5427 5425 5422 5419 5416 5413 5410 5407 5405 5402 5399 5396 5394 5392 5390 5388 5387 5386 5384 5383 5381 5380 5378 5377 5376 5375 5373 5372 5371 5370 5369 5368 5367 5367 5366 5366 5366 5366 5365 5365 5364 5363 5362 5361 5360 5358 5356 5355 5352 5350 5348 5346 5344 5342 5340 5337 5335 5332 5329 5326 5322 5318 5314 5309 5305 5301 5295
5461 5459 5457 5455 5453 5451 5449 5447 5445 5442 5440 5438 5435 5432 5430 5427 5425 5422 5420 5417 5415 5412 5409 5406 5403 5400 5398 5395 5392 5390 5387 5386 5384 5383 5381 5380 5379 5378 5376 5375 5374 5372 5371 5370 5369 5367 5366 5365 5364 5363 5363 5362 5362 5362 5361 5361 5361 5360 5360 5359 5358 5356 5355 5353 5351 5349 5347 5345 5343 5341 5339 5337 5335 5332 5329 5326 5323 5320 5316 5312 5308 5303 5299 5295 5290
5452 5450 5448 5446 5445 5443 5440 5438 5436 5434 5432 5430 5427 5425 5422 5420 5417 5414 5412 5409 5407 5404 5401 5398 5396 5393 5390 5388 5385 5383 5381 5380 5379 5377 5376 5375 5374 5373 5372 5370 5369 5368 5367 5365 5364 5363 5362 5361 5360 5359 5358 5358 5357 5357 5357 5357 5357 5356 5355 5354 5353 5352 5350 5349 5347 5344 5343 5340 5338 5336 5334 5332 5330 5327 5324 5320 5317 5314 5310 5306 5302 5298 5293 5288 5284
5444 5441 5439 5437 5435 5434 5431 5429 5428 5426 5424 5421 5419 5417 5414 5411 5409 5406 5403 5401 5399 5397 5394 5391 5388 5386 5383 5380 5378 5376 5374 5374 5373 5371 5370 5369 5368 5368 5367 5365 5364 5363 5362 5361 5360 5359 5358 5357 5356 5355 5354 5354 5354 5353 5353 5353 5353 5352 5351 5350 5348 5347 5345 5344 5342 5340 5338 5336 5334 5332 5330 5327 5325 5322 5318 5315 5310 5307 5304 5300 5296 5291 5286 5281 5276
5435 5432 5431 5429 5427 5425 5423 5421 5419 5417 5415 5413 5411 5409 5406 5403 5401 5398 5395 5394 5391 5389 5386 5383 5381 5378 5376 5373 5371 5370 5368 5368 5367 5366 5364 5363 5363 5362 5361 5360 5360 5359 5358 5357 5356 5355 5354 5353 5352 5351 5351 5350 5350 5350 5350 5350 5349 5348 5347 5345 5344 5343 5341 5339 5338 5336 5334 5332 5330 5328 5325 5322 5320 5316 5313 5309 5305 5300 5297 5293 5289 5285 5280 5275 5270
5427 5425 5423 5421 5419 5417 5415 5413 5411 5409 5407 5405 5402 5400 5398 5395 5393 5390 5387 5386 5384 5381 5379 5376 5373 5371 5368 5366 5364 5363 5362 5361 5361 5360 5359 5358 5358 5357 5356 5356 5355 5354 5353 5353 5352 5351 5350 5349 5348 5348 5347 5347 5347 5346 5346 5345 5345 5344 5342 5341 5339 5338 5337 5335 5333 5331 5329 5327 5325 5323 5321 5318 5315 5311 5308 5304 5300 5295 5290 5286 5282 5277 5272 5267 5262
5419 5417 5415 5413 5411 5409 5407 5404 5402 5400 5398 5396 5394 5392 5389 5387 5384 5382 5379 5378 5376 5374 5371 5369 5366 5364 5361 5359 5358 5357 5355 5355 5354 5354 5353 5353 5352 5352 5351 5351 5350 5349 5349 5348 5348 5347 5346 5345 5344 5344 5344 5343 5343 5342 5342 5341 5340 5339 5338 5337 5335 5334 5332 5331 5329 5327 5325 5323 5321 5319 5316 5313 5310 5306 5302 5299 5295 5290 5285 5280 5275 5270 5266 5260 5254
5411 5408 5406 5404 5402 5400 5398 5395 5393 5391 5389 5387 5385 5383 5381 5379 5376 5374 5371 5369 5368 5366 5364 5361 5359 5357 5354 5353 5351 5350 5349 5349 5348 5348 5347 5347 5347 5346 5346 5346 5345 5345 5344 5344 5344 5343 5342 5341 5341 5340 5340 5339 5339 5338 5338 5337 5336 5335 5334 5333 5331 5330 5328 5326 5325 5323 5321 5319 5316 5314 5311 5308 5305 5301 5297 5293 5289 5284 5280 5275 5270 5264 5259 5254 5248
5401 5399 5397 5394 5393 5391 5388 5386 5384 5382 5380 5378 5376 5374 5372 5370 5368 5366 5364 5362 5359 5357 5355 5353 5351 5349 5348 5346 5345 5344 5343 5343 5342 5342 5342 5341 5341 5341 5341 5341 5340 5340 5340 5339 5339 5338 5338 5337 5337 5336 5336 5335 5335 5334 5334 5333 5332 5331 5330 5329 5327 5326 5324 5322 5321 5319 5316 5314 5312 5309 5306 5303 5300 5296 5292 5287 5282 5278 5274 5268 5263 5258 5252 5247 5242
5392 5389 5387 5385 5383 5381 5379 5377 5375 5373 5371 5369 5367 5365 5364 5362 5360 5358 5356 5354 5351 5349 5347 5345 5344 5342 5341 5340 5339 5338 5337 5337 5336 5336 5336 5336 5336 5336 5336 5336 5336 5336 5335 5335 5334 5334 5334 5333 5333 5332 5332 5331 5331 5330 5330 5329 5328 5327 5326 5324 5323 5322 5320 5318 5317 5315 5312 5310 5307 5304 5301 5298 5294 5291 5287 5282 5277 5272 5268 5262 5256 5251 5245 5240 5236
5382 5380 5378 5376 5374 5372 5370 5368 5366 5364 5362 5361 5359 5357 5355 5353 5351 5349 5347 5345 5343 5341 5339 5338 5337 5335 5334 5333 5333 5332 5331 5331 5331 5331 5331 5331 5331 5331 5331 5331 5331 5331 5330 5330 5330 5330 5329 5329 5328 5328 5328 5327 5327 5327 5326 5325 5324 5323 5321 5320 5319 5317 5316 5314 5312 5310 5308 5305 5302 5299 5295 5292 5289 5285 5281 5276 5271 5266 5262 5257 5251 5245 5239 5235 5231
5372 5370 5368 5366 5365 5363 5361 5359 5357 5355 5354 5352 5350 5348 5347 5345 5343 5341 5339 5337 5335 5333 5332 5331 5330 5329 5328 5327 5327 5326 5326 5326 5325 5325 5325 5325 5325 5326 5326 5326 5326 5326 5326 5326 5326 5325 5325 5325 5324 5324 5324 5323 5323 5323 5322 5321 5320 5319 5317 5316 5315 5313 5312 5310 5308 5306 5303 5300 5297 5294 5291 5287 5283 5279 5275 5271 5266 5261 5255 5250 5245 5240 5235 5231 5227
5363 5361 5359 5357 5355 5354 5352 5350 5348 5347 5345 5343 5342 5340 5338 5336 5334 5333 5331 5329 5327 5326 5325 5324 5323 5322 5321 5321 5321 5320 5320 5320 5320 5320 5320 5320 5320 5321 5321 5321 5321 5322 5322 5322 5321 5321 5320 5320 5320 5320 5320 5320 5319 5318 5318 5317 5316 5315 5314 5312 5311 5309 5308 5306 5304 5302 5299 5296 5292 5289 5286 5282 5277 5273 5270 5266 5261 5256 5251 5245 5240 5236 5233 5229 5225
5353 5351 5349 5348 5346 5345 5343 5341 5340 5338 5336 5335 5333 5332 5330 5328 5326 5325 5323 5322 5320 5319 5318 5317 5316 5316 5315 5315 5315 5315 5314 5315 5315 5315 5315 5315 5316 5316 5316 5317 5317 5317 5317 5317 5317 5316 5316 5316 5316 5316 5316 5315 5315 5314 5314 5313 5312 5311 5310 5308 5307 5306 5304 5303 5300 5297 5294 5291 5288 5284 5281 5277 5273 5269 5264 5260 5256 5251 5246 5241 5236 5233 5230 5227 5224
5344 5342 5340 5339 5337 5335 5334 5332 5330 5329 5327 5326 5325 5323 5322 5320 5319 5318 5316 5315 5314 5312 5311 5311 5310 5309 5309 5309 5309 5309 5309 5309 5309 5310 5310 5310 5311 5311 5312 5312 5312 5312 5313 5312 5312 5312 5312 5312 5312 5312 5312 5312 5311 5310 5310 5309 5308 5307 5306 5305 5303 5302 5300 5298 5296 5293 5290 5287 5284 5280 5276 5272 5268 5264 5259 5255 5251 5246 5242 5238 5234 5231 5228 5225 5223
5334 5332 5331 5329 5327 5326 5324 5323 5321 5320 5318 5317 5316 5315 5313 5312 5311 5310 5309 5308 5307 5306 5305 5304 5303 5303 5303 5303 5303 5303 5303 5304 5304 5304 5305 5305 5306 5306 5307 5307 5308 5308 5308 5308 5308 5308 5308 5308 5309 5308 5308 5308 5307 5307 5306 5305 5305 5304 5302 5301 5300 5298 5296 5294 5292 5289 5286 5283 5279 5276 5272 5267 5264 5260 5255 5251 5247 5242 5239 5235 5233 5230 5228 5225 5222
5324 5322 5320 5319 5317 5316 5314 5313 5311 5310 5309 5307 5306 5305 5305 5304 5303 5302 5302 5301 5300 5299 5298 5298 5297 5297 5297 5297 5297 5298 5298 5298 5299 5299 5300 5300 5301 5302 5302 5303 5303 5303 5303 5304 5304 5304 5304 5305 5305 5305 5304 5304 5304 5303 5303 5302 5301 5300 5299 5298 5296 5294 5292 5290 5288 5285 5282 5279 5275 5271 5268 5263 5259 5255 5251 5247 5244 5240 5237 5234 5232 5230 5227 5224 5221
5314 5312 5310 5308 5307 5305 5303 5302 5301 5299 5298 5297 5296 5295 5295 5294 5294 5294 5293 5293 5292 5292 5291 5291 5291 5291 5291 5292 5292 5292 5292 5293 5294 5294 5295 5296 5297 5297 5298 5298 5298 5299 5299 5300 5300 5300 5301 5301 5301 5301 5301 5301 5300 5300 5299 5298 5298 5297 5295 5294 5292 5291 5288 5287 5284 5281 5278 5275 5271 5267 5263 5259 5255 5251 5248 5244 5242 5239 5236 5234 5232 5229 5227 5224 5220
5304 5302 5299 5297 5296 5294 5292 5291 5289 5288 5287 5286 5285 5285 5284 5284 5284 5284 5284 5284 5284 5285 5285 5285 5285 5285 5286 5286 5286 5287 5287 5288 5289 5289 5290 5291 5292 5292 5293 5294 5294 5295 5295 5296 5296 5297 5297 5297 5298 5297 5297 5297 5297 5296 5296 5295 5294 5293 5292 5290 5289 5287 5285 5283 5280 5277 5274 5271 5267 5263 5259 5255 5251 5248 5245 5242 5240 5238 5236 5234 5232 5230 5227 5223 5220
5293 5291 5288 5286 5284 5282 5281 5279 5277 5276 5275 5274 5274 5273 5273 5273 5274 5274 5275 5275 5276 5277 5278 5278 5279 5279 5280 5280 5280 5281 5282 5283 5284 5285 5286 5286 5287 5287 5288 5289 5290 5291 5291 5292 5293 5293 5293 5294 5294 5294 5294 5294 5293 5293 5293 5292 5291 5290 5289 5287 5285 5283 5281 5279 5276 5273 5270 5267 5264 5260 5256 5252 5249 5246 5244 5242 5240 5239 5237 5235 5232 5230 5227 5223 5219
5282 5279 5277 5274 5272 5270 5268 5267 5265 5264 5263 5262 5262 5262 5262 5263 5264 5264 5265 5266 5268 5269 5271 5272 5272 5273 5274 5274 5275 5276 5277 5278 5279 5280 5281 5282 5282 5283 5284 5285 5286 5287 5288 5288 5289 5289 5290 5290 5290 5291 5290 5291 5290 5290 5289 5289 5288 5287 5285 5284 5282 5280 5277 5275 5273 5270 5267 5264 5260 5257 5253 5250 5248 5245 5244 5242 5241 5239 5237 5235 5233 5229 5226 5222 5218
5270 5267 5264 5262 5260 5258 5256 5254 5253 5252 5251 5251 5251 5251 5252 5253 5254 5255 5256 5258 5259 5261 5263 5265 5266 5267 5268 5268 5269 5271 5272 5273 5274 5275 5276 5277 5278 5279 5280 5281 5282 5283 5284 5284 5285 5286 5286 5287 5287 5287 5287 5287 5287 5287 5286 5285 5284 5283 5282 5280 5279 5277 5274 5272 5269 5267 5263 5260 5257 5254 5252 5249 5247 5246 5244 5243 5242 5240 5238 5235 5233 5229 5226 5222 5217
5258 5255 5253 5250 5248 5245 5244 5242 5240 5239 5239 5239 5239 5240 5241 5242 5244 5245 5247 5249 5251 5253 5256 5258 5259 5261 5262 5263 5264 5265 5267 5268 5269 5270 5271 5273 5274 5275 5276 5277 5278 5279 5280 5281 5282 5282 5283 5283 5283 5284 5284 5284 5284 5284 5283 5282 5281 5280 5279 5277 5275 5273 5271 5269 5266 5263 5260 5257 5254 5252 5250 5248 5247 5246 5246 5244 5243 5241 5239 5236 5233 5229 5226 5222 5217
5248 5245 5242 5239 5237 5234 5232 5230 5228 5227 5227 5227 5228 5229 5230 5232 5234 5236 5238 5240 5243 5245 5248 5250 5253 5254 5256 5257 5259 5260 5261 5263 5264 5266 5267 5269 5270 5271 5272 5273 5274 5275 5276 5277 5278 5278 5279 5280 5280 5280 5280 5281 5281 5280 5280 5279 5278 5277 5276 5274 5272 5271 5268 5266 5263 5260 5257 5255 5253 5251 5249 5249 5248 5248 5247 5245 5243 5241 5239 5236 5233 5230 5226 5222 5217
5238 5235 5233 5230 5227 5224 5221 5219 5217 5216 5216 5216 5217 5218 5220 5222 5224 5227 5229 5232 5235 5238 5241 5243 5246 5248 5250 5252 5253 5255 5256 5258 5260 5261 5263 5264 5265 5267 5268 5269 5270 5272 5273 5273 5274 5275 5276 5276 5277 5277 5277 5277 5277 5277 5276 5275 5275 5274 5273 5271 5269 5268 5265 5262 5260 5257 5255 5253 5252 5250 5250 5250 5249 5249 5247 5246 5244 5242 5239 5236 5233 5230 5226 5222 5217
5230 5228 5225 5221 5218 5215 5212 5210 5208 5207 5207 5207 5208 5209 5211 5213 5216 5218 5221 5224 5227 5230 5233 5236 5239 5242 5244 5246 5248 5250 5251 5253 5255 5257 5258 5260 5261 5263 5264 5265 5267 5268 5269 5270 5271 5272 5272 5273 5274 5274 5274 5274 5274 5273 5273 5272 5271 5271 5270 5268 5266 5264 5262 5259 5257 5255 5253 5252 5251 5251 5251 5251 5250 5249 5248 5246 5244 5242 5240 5237 5234 5230 5226 5221 5216